Find Starlink 11119

NORAD ID: 60121 Int'l Des: 2024-118 Owner: SPXS Country: US Constellation: starlink operational
別名: STARLINK-11119 [DTC] celestrak
LEOCIRCULAR

現在のビュー

3D地球を読み込み中...

About Starlink 11119

Starlink 11119 (NORAD 60121) is a starlink constellation satellite (v2 mini d2c) launched Jun 24, 2024 by SPXS of US. It operates in LEO, CIRCULAR orbit with a mass of 960.00 kg.

次回通過

Passes for default location (London). Set your location on the main map for personalized predictions.

高度履歴

Loading altitude history...

軌道要素

1 60121U 24118J 26265.53558798 .00000552 00000-0 94169-5 0 9993
2 60121 53.1586 330.6252 0001052 89.1643 270.9496 15.69701557128914
Epoch: Sep 22, 2026 • Age: 16 hours

現在のステータス

高度 364.5 km
遠地点 / 近地点 N/A
速度 7.69 km/s
衛星直下点 -16.61°S, 83.3°E
打ち上げ日 Jun 24, 2024
運用期間 2.2 years
タイプ internet

技術仕様

分類 Payload
質量 960.00 kg
乾燥質量 910.00 kg
長さ 0.30 m
スパン 29.00 m
形状 ? Box + pan
製造者 SPXS
バスタイプ Starlink V2MD
フェーズステータス In Orbit
所有者/国 SPXS/US

Most Searched